Date String (YYYY-MM-DD hh:mm:ss) UTC,Instrument flags,Ambient pressure (hPa),Sample flow (lpm),Bypass flow (lpm),Sample temperature (°C),Ambient temperature (°C),ASC tube jacket temperature (°C),LED temperature (°C),Box temperature (°C),Sample RH (%),Span deviation,Mass concentration (μg/m³),Mass concentration (μg/m³),Mass concentration (μg/m³)
DateTimeUTC,F1_M11,P_M11,Q1_M11,Q2_M11,T1_M11,T2_M11,T3_M11,T4_M11,T5_M11,U1_M11,ZSPAN_M11,X2_M11,X0_M11,X1_M11
2022-10-01 10:00:00,,0826.8,5.00,0.00,30.5,28.7,00.0,39.3,32.2,25.2,0000.0,0002.32,0005.11,0001.62
2022-10-01 10:01:00,,0826.8,4.99,0.00,30.4,28.6,00.0,39.3,32.2,25.3,0000.0,0002.26,0005.07,0001.57
2022-10-01 10:02:00,,0826.8,4.99,0.00,30.4,28.6,00.0,39.3,32.2,25.4,0000.0,0002.18,0004.86,0001.52
2022-10-01 10:03:00,,0826.8,5.00,0.00,30.4,28.5,00.0,39.3,32.1,25.4,0000.0,0002.05,0004.65,0001.43
2022-10-01 10:04:00,,0826.8,5.00,0.00,30.4,28.5,00.0,39.2,32.1,25.3,0000.0,0001.89,0004.17,0001.33
2022-10-01 10:05:00,,0826.8,5.01,0.00,30.4,28.4,00.0,39.2,32.1,25.5,0000.0,0001.68,0003.09,0001.21
2022-10-01 10:06:00,,0826.8,4.99,0.00,30.3,28.4,00.0,39.2,32.1,25.5,0000.0,0001.58,0003.22,0001.11
2022-10-01 10:07:00,,0826.8,5.00,0.00,30.3,28.4,00.0,39.2,32.0,25.4,0000.0,0001.60,0003.26,0001.06
2022-10-01 10:08:00,,0826.8,5.00,0.00,30.3,28.3,00.0,39.2,32.0,25.4,0000.0,0001.53,0003.22,0001.02
2022-10-01 10:09:00,,0826.7,5.00,0.00,30.3,28.3,00.0,39.2,32.0,25.5,0000.0,0001.51,0003.26,0001.00
2022-10-01 10:10:00,,0827.1,5.00,0.00,30.3,28.3,00.0,39.2,32.0,25.5,0000.0,0001.49,0003.29,0000.99
2022-10-01 10:11:00,,0826.9,5.00,0.00,30.2,28.3,00.0,39.2,32.0,25.5,0000.0,0001.51,0003.29,0000.99
2022-10-01 10:12:00,,0826.9,5.00,0.00,30.2,28.2,00.0,39.1,32.0,25.6,0000.0,0001.53,0003.36,0001.00
2022-10-01 10:13:00,,0826.9,5.01,0.00,30.2,28.2,00.0,39.1,31.9,25.6,0000.0,0001.56,0003.43,0001.03
2022-10-01 10:14:00,,0826.9,5.00,0.00,30.2,28.2,00.0,39.1,31.9,25.8,0000.0,0001.57,0003.46,0001.05
2022-10-01 10:15:00,,0826.9,5.00,0.00,30.2,28.2,00.0,39.1,31.9,26.4,0000.0,0001.56,0003.45,0001.05
2022-10-01 10:16:00,,0826.9,5.00,0.00,30.1,28.1,00.0,39.1,31.9,26.7,0000.0,0001.58,0003.53,0001.06
2022-10-01 10:17:00,,0826.9,5.00,0.00,30.1,28.1,00.0,39.1,31.9,26.0,0000.0,0001.57,0003.10,0001.06
2022-10-01 10:18:00,,0826.8,4.99,0.00,30.1,28.1,00.0,39.0,31.9,25.8,0000.0,0001.51,0003.01,0001.07
2022-10-01 10:19:00,,0826.9,4.99,0.00,30.1,28.2,00.0,39.0,31.9,25.7,0000.0,0001.55,0003.03,0001.08
2022-10-01 10:20:00,,0826.8,5.00,0.00,30.1,28.2,00.0,39.0,31.9,25.6,0000.0,0001.54,0002.96,0001.07
2022-10-01 10:21:00,,0826.7,5.00,0.00,30.1,28.2,00.0,39.0,31.9,25.5,0000.0,0001.57,0002.93,0001.09
2022-10-01 10:22:00,,0826.7,5.01,0.00,30.1,28.2,00.0,39.0,31.8,25.3,0000.0,0001.53,0002.84,0001.09
2022-10-01 10:23:00,,0826.7,4.99,0.00,30.1,28.2,00.0,39.0,31.8,25.3,0000.0,0001.49,0002.69,0001.09
2022-10-01 10:24:00,,0826.7,4.99,0.00,30.1,28.3,00.0,38.9,31.8,25.3,0000.0,0001.48,0002.64,0001.08
2022-10-01 10:25:00,,0826.6,5.00,0.00,30.1,28.3,00.0,38.9,31.9,25.2,0000.0,0001.45,0002.42,0001.07
2022-10-01 10:26:00,,0826.5,5.01,0.00,30.1,28.4,00.0,38.9,31.9,25.2,0000.0,0001.47,0002.41,0001.08
2022-10-01 10:27:00,,0826.5,4.98,0.00,30.1,28.4,00.0,38.9,31.9,25.4,0000.0,0001.47,0002.43,0001.08
2022-10-01 10:28:00,,0826.4,5.00,0.00,30.1,28.4,00.0,38.9,31.9,25.6,0000.0,0001.47,0002.34,0001.09
2022-10-01 10:29:00,,0826.4,5.00,0.00,30.1,28.4,00.0,38.9,31.8,25.7,0000.0,0001.47,0002.26,0001.09
2022-10-01 10:30:00,,0826.2,5.00,0.00,30.0,28.3,00.0,38.9,31.9,25.8,0000.0,0001.48,0002.24,0001.10
2022-10-01 10:31:00,,0826.2,5.00,0.00,30.0,28.3,00.0,38.9,31.8,25.9,0000.0,0001.52,0002.38,0001.11
2022-10-01 10:32:00,,0826.2,4.99,0.00,30.0,28.3,00.0,38.9,31.8,25.9,0000.0,0001.52,0002.48,0001.11
2022-10-01 10:33:00,,0826.2,5.00,0.00,30.0,28.3,00.0,38.9,31.8,26.1,0000.0,0001.51,0002.44,0001.11
2022-10-01 10:34:00,,0826.1,5.00,0.00,30.0,28.2,00.0,38.9,31.8,26.3,0000.0,0001.55,0002.61,0001.12
2022-10-01 10:35:00,,0826.1,5.01,0.00,30.0,28.2,00.0,38.8,31.8,26.1,0000.0,0001.58,0002.74,0001.14
2022-10-01 10:36:00,,0826.2,5.01,0.00,30.0,28.2,00.0,38.8,31.7,25.9,0000.0,0001.60,0002.91,0001.14
2022-10-01 10:37:00,,0826.1,4.99,0.00,30.0,28.1,00.0,38.8,31.7,25.9,0000.0,0001.60,0002.94,0001.15
2022-10-01 10:38:00,,0826.0,4.99,0.00,30.0,28.1,00.0,38.8,31.8,26.1,0000.0,0001.63,0002.98,0001.17
2022-10-01 10:39:00,,0826.0,5.01,0.00,30.0,28.1,00.0,38.8,31.8,26.3,0000.0,0001.63,0002.97,0001.19
2022-10-01 10:40:00,,0826.0,5.00,0.00,29.9,28.1,00.0,38.8,31.7,26.3,0000.0,0001.65,0003.01,0001.21
2022-10-01 10:41:00,,0826.0,5.00,0.00,29.9,28.2,00.0,38.8,31.7,26.4,0000.0,0001.68,0003.09,0001.23
2022-10-01 10:42:00,,0826.1,5.01,0.00,29.9,28.2,00.0,38.8,31.7,26.6,0000.0,0001.67,0003.09,0001.26
2022-10-01 10:43:00,,0826.2,5.00,0.00,29.9,28.2,00.0,38.8,31.7,26.8,0000.0,0001.71,0003.14,0001.29
2022-10-01 10:44:00,,0826.4,4.99,0.00,29.9,28.2,00.0,38.8,31.7,26.7,0000.0,0001.75,0003.17,0001.32
2022-10-01 10:45:00,,0826.5,5.00,0.00,29.9,28.2,00.0,38.7,31.7,26.7,0000.0,0001.75,0003.17,0001.34
2022-10-01 10:46:00,,0826.5,5.01,0.00,29.9,28.2,00.0,38.7,31.8,26.7,0000.0,0001.78,0003.19,0001.37
2022-10-01 10:47:00,,0826.7,5.01,0.00,29.9,28.2,00.0,38.7,31.8,26.8,0000.0,0001.82,0003.33,0001.40
2022-10-01 10:48:00,,0826.7,5.00,0.00,29.9,28.2,00.0,38.7,31.7,26.8,0000.0,0001.90,0003.37,0001.43
2022-10-01 10:49:00,,0826.7,4.99,0.00,29.9,28.2,00.0,38.7,31.7,26.7,0000.0,0001.96,0003.38,0001.46
2022-10-01 10:50:00,,0826.8,5.00,0.00,29.9,28.3,00.0,38.7,31.8,26.6,0000.0,0001.94,0003.35,0001.45
2022-10-01 10:51:00,,0826.7,5.00,0.00,29.9,28.3,00.0,38.7,31.8,26.5,0000.0,0001.95,0003.50,0001.44
2022-10-01 10:52:00,,0826.8,5.00,0.00,29.9,28.3,00.0,38.7,31.8,26.4,0000.0,0001.93,0003.37,0001.44
2022-10-01 10:53:00,,0826.8,5.00,0.00,29.9,28.3,00.0,38.7,31.7,26.3,0000.0,0001.91,0003.28,0001.42
2022-10-01 10:54:00,,0826.8,5.01,0.00,29.9,28.4,00.0,38.7,31.7,26.1,0000.0,0001.88,0003.19,0001.39
2022-10-01 10:55:00,,0827.0,5.00,0.00,29.9,28.4,00.0,38.7,31.7,25.9,0000.0,0001.86,0003.16,0001.38
2022-10-01 10:56:00,,0827.1,4.99,0.00,29.9,28.4,00.0,38.7,31.7,25.9,0000.0,0001.84,0003.15,0001.38
2022-10-01 10:57:00,,0827.0,5.00,0.00,29.9,28.4,00.0,38.7,31.7,25.8,0000.0,0001.79,0003.02,0001.35
2022-10-01 10:58:00,,0827.0,5.00,0.00,30.0,28.4,00.0,38.7,31.8,25.8,0000.0,0001.74,0002.87,0001.32
2022-10-01 10:59:00,,0827.1,5.00,0.00,29.9,28.4,00.0,38.7,31.7,25.6,0000.0,0001.67,0002.92,0001.29
